Location: Pic du Midi - T1M
(42.9366°N, 0.1426°E)
Time: 18:50:57
(UTC+01:00)

Nauka - Pass Details

Date: 27 September 2021
Orbit: 417 x 423 km, 51.6° (Epoch: 24 October)

Event Time Altitude Azimuth Distance (km) Brightness Sun altitude
Rises 20:45:52 0° 304° (NW) 2,359 ? -22.1°
Reaches altitude 10° 20:48:14 10° 319° (NW) 1,495 ? -22.6°
Enters shadow 20:50:26 23° 358° (N) 940 ? -22.9°
